TimeCDT,TemperatureF,Dew PointF,Humidity,Sea Level PressureIn,VisibilityMPH,Wind Direction,Wind SpeedMPH,Gust SpeedMPH,PrecipitationIn,Events,Conditions,WindDirDegrees,DateUTC
12:52 AM,28.0,21.0,75,30.10,10.0,SW,4.6,-,N/A,,Mostly Cloudy,220,2012-10-10 05:52:00
1:52 AM,27.0,21.9,81,30.08,10.0,South,3.5,-,N/A,,Scattered Clouds,190,2012-10-10 06:52:00
2:52 AM,28.9,21.9,75,30.07,10.0,Calm,Calm,-,N/A,,Overcast,0,2012-10-10 07:52:00
3:52 AM,30.0,25.0,82,30.06,10.0,Calm,Calm,-,N/A,,Overcast,0,2012-10-10 08:52:00
4:52 AM,33.1,27.0,78,30.02,10.0,Calm,Calm,-,N/A,,Overcast,0,2012-10-10 09:52:00
5:52 AM,34.0,28.0,79,30.01,10.0,Calm,Calm,-,N/A,,Overcast,0,2012-10-10 10:52:00
6:52 AM,36.0,25.0,64,29.98,10.0,Calm,Calm,-,N/A,,Overcast,0,2012-10-10 11:52:00
7:52 AM,37.0,25.0,62,29.94,10.0,SE,5.8,-,N/A,,Mostly Cloudy,140,2012-10-10 12:52:00
8:52 AM,37.4,26.6,65,29.87,10.0,SSE,4.6,-,N/A,,Overcast,150,2012-10-10 13:52:00
9:52 AM,39.0,28.9,67,29.91,10.0,South,5.8,-,N/A,,Overcast,170,2012-10-10 14:52:00
10:52 AM,42.1,33.1,70,29.89,10.0,South,5.8,-,N/A,,Overcast,190,2012-10-10 15:52:00
11:52 AM,44.1,33.1,65,29.87,10.0,SW,5.8,-,N/A,,Overcast,220,2012-10-10 16:52:00
12:52 PM,48.0,34.0,58,29.87,10.0,SSW,5.8,-,N/A,,Mostly Cloudy,200,2012-10-10 17:52:00
1:52 PM,52.0,34.0,50,29.86,10.0,NNW,13.8,-,N/A,,Scattered Clouds,330,2012-10-10 18:52:00
2:52 PM,51.1,34.0,52,29.86,10.0,North,9.2,-,N/A,,Mostly Cloudy,360,2012-10-10 19:52:00
3:52 PM,48.9,34.0,56,29.89,10.0,North,11.5,-,N/A,,Overcast,10,2012-10-10 20:52:00
4:52 PM,45.0,33.1,63,29.93,10.0,North,17.3,21.9,N/A,,Overcast,360,2012-10-10 21:52:00
5:52 PM,43.0,34.0,71,29.96,10.0,North,16.1,-,N/A,,Overcast,360,2012-10-10 22:52:00
6:52 PM,39.9,32.0,73,30.00,10.0,North,15.0,-,N/A,,Scattered Clouds,10,2012-10-10 23:52:00
7:26 PM,39.2,32.0,75,29.96,10.0,NNE,12.7,-,N/A,,Mostly Cloudy,20,2012-10-11 00:26:00
7:52 PM,39.9,33.1,77,30.03,10.0,North,10.4,-,N/A,,Overcast,10,2012-10-11 00:52:00
8:52 PM,39.0,34.0,82,30.06,10.0,North,9.2,-,N/A,,Overcast,10,2012-10-11 01:52:00
9:52 PM,37.9,33.1,83,30.10,10.0,North,4.6,-,N/A,,Overcast,360,2012-10-11 02:52:00
10:44 PM,37.4,33.8,87,30.07,10.0,North,5.8,-,N/A,,Overcast,360,2012-10-11 03:44:00
10:52 PM,37.9,34.0,86,30.12,10.0,North,5.8,-,N/A,,Overcast,360,2012-10-11 03:52:00
11:37 PM,37.4,33.8,87,30.08,10.0,NNW,16.1,-,N/A,,Overcast,340,2012-10-11 04:37:00
11:52 PM,37.0,34.0,89,30.14,10.0,North,19.6,25.3,N/A,,Overcast,350,2012-10-11 04:52:00